When you browse on this site, cookies collect data to enhance your experience and personalize the content and advertising you see.
Visit our Privacy Policy to learn more. By continuing to use the site, you agree to this use of cookies and data.
  • In Spain
  • List of Countries
  • For 7 days
  • Water Temperature
  • Satellite Maps
  • Weather Map
  • Weather Widgets
  • user-avatar
    Login

    Hourly Weather Turin

    Today, 25 June, Tuesday

    Time Temperature Precipitation Wind Pressure Humidity
    00:00 +25°C° 0 mm 1 mps 744 mmHg 75%
    01:00 +24°C° 0 mm 1 mps 744 mmHg 77%
    02:00 +24°C° 0 mm 1 mps 744 mmHg 78%
    03:00 +24°C° 0 mm 1 mps 744 mmHg 78%
    04:00 +24°C° 0 mm 1 mps 744 mmHg 79%
    05:00 +23°C° 0 mm 0 mps 744 mmHg 77%
    06:00 +24°C° 0 mm 0 mps 744 mmHg 74%
    07:00 +25°C° 0 mm 0 mps 745 mmHg 69%
    08:00 +28°C° 0 mm 1 mps 745 mmHg 65%
    09:00 +30°C° 0 mm 1 mps 745 mmHg 60%
    10:00 +31°C° 0 mm 1 mps 745 mmHg 56%
    11:00 +32°C° 0 mm 1 mps 745 mmHg 53%
    12:00 +33°C° 0 mm 1 mps 745 mmHg 51%
    13:00 +34°C° 0 mm 1 mps 745 mmHg 48%
    14:00 +34°C° 0 mm 1 mps 744 mmHg 49%
    15:00 +35°C° 0 mm 2 mps 744 mmHg 49%
    16:00 +35°C° 0 mm 2 mps 744 mmHg 50%
    17:00 +34°C° 0 mm 2 mps 744 mmHg 55%
    18:00 +32°C° 0 mm 1 mps 745 mmHg 61%
    19:00 +31°C° 0 mm 1 mps 745 mmHg 66%
    20:00 +29°C° 0 mm 1 mps 745 mmHg 70%
    21:00 +28°C° 0 mm 1 mps 746 mmHg 74%
    22:00 +24°C° 0 mm 0 mps 746 mmHg 78%
    23:00 +24°C° 0 mm 0 mps 746 mmHg 79%

    Tomorrow, 26 June, Wednesday

    Time Temperature Precipitation Wind Pressure Humidity
    00:00 +26°C° 0 mm 1 mps 746 mmHg 79%
    01:00 +25°C° 0 mm 1 mps 747 mmHg 80%
    02:00 +25°C° 0 mm 1 mps 746 mmHg 80%
    03:00 +25°C° 0 mm 1 mps 746 mmHg 80%
    04:00 +25°C° 0 mm 1 mps 746 mmHg 80%
    05:00 +26°C° 0 mm 1 mps 746 mmHg 78%
    06:00 +25°C° 0 mm 0 mps 746 mmHg 75%
    07:00 +26°C° 0 mm 0 mps 746 mmHg 72%
    08:00 +27°C° 0 mm 0 mps 746 mmHg 67%
    09:00 +31°C° 0 mm 1 mps 746 mmHg 62%
    10:00 +32°C° 0 mm 1 mps 746 mmHg 57%
    11:00 +33°C° 0 mm 1 mps 746 mmHg 54%
    12:00 +34°C° 0 mm 1 mps 746 mmHg 51%
    13:00 +36°C° 0 mm 1 mps 746 mmHg 48%
    14:00 +36°C° 0 mm 1 mps 746 mmHg 48%
    15:00 +36°C° 0 mm 1 mps 746 mmHg 48%
    16:00 +36°C° 0 mm 1 mps 745 mmHg 47%
    17:00 +35°C° 0 mm 1 mps 745 mmHg 53%
    18:00 +35°C° 0 mm 2 mps 745 mmHg 58%
    19:00 +34°C° 0 mm 2 mps 745 mmHg 63%
    20:00 +31°C° 0 mm 1 mps 746 mmHg 65%
    21:00 +30°C° 0 mm 1 mps 746 mmHg 67%
    22:00 +28°C° 0 mm 1 mps 746 mmHg 69%
    23:00 +28°C° 0 mm 1 mps 746 mmHg 67%

    Day after tomorrow, 27 June, Thursday

    Time Temperature Precipitation Wind Pressure Humidity
    00:00 +28°C° 0 mm 1 mps 746 mmHg 65%
    01:00 +27°C° 0 mm 1 mps 746 mmHg 64%
    02:00 +27°C° 0 mm 1 mps 746 mmHg 63%
    03:00 +27°C° 0 mm 1 mps 745 mmHg 61%
    04:00 +26°C° 0 mm 1 mps 745 mmHg 60%
    05:00 +27°C° 0 mm 1 mps 745 mmHg 59%
    06:00 +28°C° 0 mm 1 mps 745 mmHg 59%
    07:00 +27°C° 0 mm 0 mps 745 mmHg 58%
    08:00 +29°C° 0 mm 0 mps 745 mmHg 54%
    09:00 +33°C° 0 mm 1 mps 745 mmHg 51%
    10:00 +34°C° 0 mm 1 mps 744 mmHg 47%
    11:00 +36°C° 0 mm 1 mps 744 mmHg 44%
    12:00 +37°C° 0 mm 1 mps 744 mmHg 40%
    13:00 +40°C° 0 mm 1 mps 744 mmHg 36%
    14:00 +40°C° 0 mm 1 mps 743 mmHg 35%
    15:00 +40°C° 0 mm 1 mps 743 mmHg 34%
    16:00 +41°C° 0 mm 1 mps 743 mmHg 33%
    17:00 +39°C° 0 mm 1 mps 742 mmHg 38%
    18:00 +35°C° 0 mm 0 mps 742 mmHg 43%
    19:00 +34°C° 0 mm 0 mps 742 mmHg 48%
    20:00 +34°C° 0 mm 1 mps 742 mmHg 47%
    21:00 +32°C° 0 mm 1 mps 742 mmHg 47%
    22:00 +30°C° 0 mm 2 mps 742 mmHg 46%
    23:00 +30°C° 0 mm 2 mps 742 mmHg 44%

    28 June, Friday

    Time Temperature Precipitation Wind Pressure Humidity
    00:00 +29°C° 0 mm 2 mps 742 mmHg 43%
    01:00 +29°C° 0 mm 2 mps 742 mmHg 41%
    02:00 +28°C° 0 mm 1 mps 741 mmHg 40%
    03:00 +27°C° 0 mm 1 mps 741 mmHg 40%
    04:00 +27°C° 0 mm 1 mps 741 mmHg 39%
    05:00 +28°C° 0 mm 1 mps 741 mmHg 41%
    06:00 +29°C° 0 mm 1 mps 741 mmHg 43%
    07:00 +29°C° 0 mm 1 mps 741 mmHg 46%
    08:00 +31°C° 0 mm 1 mps 741 mmHg 45%
    09:00 +32°C° 0 mm 2 mps 741 mmHg 44%
    10:00 +34°C° 0 mm 2 mps 741 mmHg 43%
    11:00 +35°C° 0 mm 2 mps 740 mmHg 43%
    12:00 +36°C° 0 mm 2 mps 740 mmHg 43%
    13:00 +37°C° 0 mm 2 mps 740 mmHg 43%
    14:00 +37°C° 0 mm 2 mps 740 mmHg 44%
    15:00 +37°C° 0 mm 2 mps 740 mmHg 45%
    16:00 +37°C° 0 mm 2 mps 739 mmHg 46%
    17:00 +36°C° 0 mm 2 mps 740 mmHg 54%
    18:00 +35°C° 0 mm 2 mps 740 mmHg 61%
    19:00 +32°C° 0 mm 2 mps 740 mmHg 69%
    20:00 +31°C° 0.4 mm 2 mps 740 mmHg 75%
    21:00 +29°C° 0.4 mm 2 mps 740 mmHg 80%
    22:00 +27°C° 0.4 mm 2 mps 741 mmHg 86%
    23:00 +27°C° 0.3 mm 1 mps 741 mmHg 85%

    29 June, Saturday

    Time Temperature Precipitation Wind Pressure Humidity
    00:00 +26°C° 0.3 mm 1 mps 741 mmHg 85%
    01:00 +26°C° 0.3 mm 1 mps 741 mmHg 84%
    02:00 +26°C° 0 mm 1 mps 741 mmHg 83%
    03:00 +25°C° 0 mm 1 mps 741 mmHg 81%
    04:00 +25°C° 0 mm 1 mps 741 mmHg 80%
    05:00 +25°C° 0 mm 1 mps 741 mmHg 78%
    06:00 +25°C° 0 mm 1 mps 741 mmHg 76%
    07:00 +26°C° 0 mm 1 mps 741 mmHg 74%
    08:00 +27°C° 0 mm 1 mps 742 mmHg 68%
    09:00 +27°C° 0 mm 1 mps 742 mmHg 63%
    10:00 +28°C° 0 mm 2 mps 742 mmHg 57%
    11:00 +29°C° 0 mm 2 mps 742 mmHg 54%
    12:00 +30°C° 0 mm 2 mps 741 mmHg 51%
    13:00 +31°C° 0 mm 2 mps 741 mmHg 48%
    14:00 +32°C° 0 mm 2 mps 741 mmHg 48%
    15:00 +32°C° 0 mm 2 mps 741 mmHg 49%
    16:00 +32°C° 0 mm 2 mps 741 mmHg 49%
    17:00 +31°C° 0 mm 2 mps 741 mmHg 54%
    18:00 +30°C° 0 mm 2 mps 741 mmHg 59%
    19:00 +29°C° 0 mm 2 mps 741 mmHg 64%
    20:00 +28°C° 0 mm 1 mps 742 mmHg 68%
    21:00 +26°C° 0 mm 1 mps 742 mmHg 72%
    22:00 +25°C° 0 mm 1 mps 742 mmHg 76%
    23:00 +25°C° 0 mm 1 mps 742 mmHg 76%

    30 June, Sunday

    Time Temperature Precipitation Wind Pressure Humidity
    00:00 +24°C° 0 mm 1 mps 743 mmHg 77%
    01:00 +24°C° 0 mm 1 mps 743 mmHg 78%
    02:00 +22°C° 0 mm 0 mps 742 mmHg 79%
    03:00 +21°C° 0 mm 0 mps 742 mmHg 79%
    04:00 +21°C° 0 mm 0 mps 742 mmHg 80%
    05:00 +22°C° 0 mm 0 mps 742 mmHg 77%
    06:00 +23°C° 0 mm 0 mps 742 mmHg 73%
    07:00 +24°C° 0 mm 0 mps 743 mmHg 70%
    08:00 +25°C° 0 mm 0 mps 743 mmHg 65%
    09:00 +27°C° 0 mm 0 mps 743 mmHg 60%
    10:00 +30°C° 0 mm 1 mps 743 mmHg 55%
    11:00 +31°C° 0 mm 1 mps 742 mmHg 52%
    12:00 +32°C° 0 mm 1 mps 742 mmHg 49%
    13:00 +34°C° 0 mm 1 mps 742 mmHg 46%
    14:00 +34°C° 0 mm 1 mps 742 mmHg 46%
    15:00 +34°C° 0 mm 1 mps 742 mmHg 45%
    16:00 +34°C° 0 mm 1 mps 741 mmHg 44%
    17:00 +33°C° 0 mm 1 mps 741 mmHg 50%
    18:00 +32°C° 0 mm 1 mps 741 mmHg 56%
    19:00 +31°C° 0 mm 1 mps 741 mmHg 62%
    20:00 +29°C° 0 mm 1 mps 742 mmHg 66%
    21:00 +28°C° 0 mm 1 mps 742 mmHg 70%
    22:00 +26°C° 0 mm 1 mps 742 mmHg 74%
    23:00 +26°C° 0 mm 1 mps 742 mmHg 75%
    Show more